Bardai Zougra Airport

Jump to: basic info | weather | comments

Related pages: nearby airports | nearby navaids | notams | map

Basic information (top)

Codes: FTTZ
Location: lon 21.450001, lat 17.049999, elev 3,524 ft / 1,074 m msl
Status: small_airport

Weather (top)

Current conditions for Faya Largeau Airport 242nm (448km) SSE (rec'd 2015/02/27 11:00Z):

FTTY 271100Z 04018KT 4000 SA SKC 29/M04 Q1014

Airport forecast for Kufra Airport 383nm (710km) ENE (rec'd 2015/02/27 06:00Z):

TAF HLKF 270500Z 2706/2806 34010G20KT 7000 NSC PROB30 
      TEMPO 2706/2715 3000 BLSA 

Latest comments (top)

No comments yet for Bardai Zougra Airport

More... (top)

See also NOTAMs and nearby airports and navaids, or visit the Bardai Zougra Airport page at the main OurAirports website..